User: anonymous   Login
Location: Bonny Doon Airfield
(37.0704°N, 122.1252°W)
Time: 23:18:40
(UTC-07:00)
Language:

BREEZE M DEB (TANK) - Orbit

View from above orbital plane
View from above orbital plane
View from above satellite
View from above satellite

Ground track
Ground track

The orbit data is extracted from the following two-line orbital elements,

1 33437U 08057B   17080.56516668 +.00001406 +00000-0 +33105-3 0  9995
2 33437 049.5803 321.1157 5000408 011.8514 356.6099 05.60186316168940
Epoch (UTC): 21 March 2017 13:33:50
Eccentricity: 0.5000408
inclination: 49.5803°
perigee height: 317 km
apogee height: 13710 km
right ascension of ascending node: 321.1157°
argument of perigee: 11.8514°
revolutions per day: 5.60186316
mean anomaly at epoch: 356.6099°
orbit number at epoch: 16894

The dashed part of the orbit path shows where the satellite is in the earth's shadow,  

DLR